| time (UTC) | temp F | wind direction | speed MPH | gust MPH | rain 1hr in | rain 24hr in | rain mn in | humidity % | barometer mb |
| 20260507231703 | 58 | 11 | 1.0 | 18.0 | 0.00 | 0.00 | 0.00 | 20 | 1008.8 |
| 20260507231202 | 58 | 16 | 1.0 | 18.0 | 0.00 | 0.00 | 0.00 | 21 | 1008.8 |
| 20260507230202 | 58 | 354 | 0.0 | 5.0 | 0.00 | 0.00 | 0.00 | 23 | 1009.0 |
| 20260507225702 | 58 | 303 | 1.0 | 8.0 | 0.00 | 0.00 | 0.00 | 24 | 1009.0 |
| 20260507225203 | 58 | 39 | 1.0 | 8.0 | 0.00 | 0.00 | 0.00 | 22 | 1008.9 |
| 20260507224703 | 58 | 226 | 3.0 | 10.0 | 0.00 | 0.00 | 0.00 | 21 | 1009.0 |
| 20260507224203 | 58 | 13 | 1.0 | 10.0 | 0.00 | 0.00 | 0.00 | 20 | 1009.0 |
| 20260507223703 | 58 | 22 | 3.0 | 10.0 | 0.00 | 0.00 | 0.00 | 20 | 1009.0 |
| 20260507223204 | 58 | 323 | 2.0 | 10.0 | 0.00 | 0.00 | 0.00 | 22 | 1009.0 |
| 20260507222702 | 58 | 299 | 1.0 | 6.0 | 0.00 | 0.00 | 0.00 | 22 | 1009.0 |
| 20260507221702 | 58 | 30 | 3.0 | 12.0 | 0.00 | 0.00 | 0.00 | 19 | 1009.1 |
| 20260507221203 | 58 | 318 | 1.0 | 10.0 | 0.00 | 0.00 | 0.00 | 19 | 1009.0 |
| 20260507220703 | 58 | 25 | 3.0 | 10.0 | 0.00 | 0.00 | 0.00 | 22 | 1009.1 |
| 20260507220203 | 58 | 40 | 0.0 | 12.0 | 0.00 | 0.00 | 0.00 | 19 | 1009.1 |
| 20260507215703 | 58 | 304 | 2.0 | 12.0 | 0.00 | 0.00 | 0.00 | 18 | 1009.2 |
| 20260507214703 | 59 | 11 | 2.0 | 10.0 | 0.00 | 0.00 | 0.00 | 20 | 1009.3 |
| 20260507214202 | 59 | 287 | 1.0 | 8.0 | 0.00 | 0.00 | 0.00 | 20 | 1009.3 |
| 20260507213703 | 60 | 6 | 3.0 | 12.0 | 0.00 | 0.00 | 0.00 | 18 | 1009.4 |
| 20260507213203 | 60 | 288 | 2.0 | 12.0 | 0.00 | 0.00 | 0.00 | 20 | 1009.3 |
| 20260507212703 | 60 | 0 | 1.0 | 6.0 | 0.00 | 0.00 | 0.00 | 19 | 1009.2 |
| 20260507212203 | 60 | 314 | 1.0 | 12.0 | 0.00 | 0.00 | 0.00 | 21 | 1009.3 |
| 20260507211703 | 60 | 331 | 2.0 | 12.0 | 0.00 | 0.00 | 0.00 | 19 | 1009.4 |
| 20260507211203 | 60 | 315 | 3.0 | 12.0 | 0.00 | 0.00 | 0.00 | 19 | 1009.4 |
| 20260507210703 | 60 | 288 | 3.0 | 12.0 | 0.00 | 0.00 | 0.00 | 20 | 1009.6 |
| 20260507210202 | 60 | 341 | 3.0 | 9.0 | 0.00 | 0.00 | 0.00 | 21 | 1009.5 |
| 20260507205704 | 60 | 325 | 3.0 | 10.0 | 0.00 | 0.00 | 0.00 | 20 | 1009.6 |
| 20260507205203 | 60 | 294 | 2.0 | 10.0 | 0.00 | 0.00 | 0.00 | 20 | 1009.6 |
| 20260507204703 | 60 | 289 | 2.0 | 7.0 | 0.00 | 0.00 | 0.00 | 22 | 1009.6 |
| 20260507204203 | 60 | 318 | 1.0 | 9.0 | 0.00 | 0.00 | 0.00 | 21 | 1009.7 |
| 20260507203703 | 60 | 300 | 2.0 | 14.0 | 0.00 | 0.00 | 0.00 | 21 | 1009.9 |
| 20260507203203 | 59 | 238 | 3.0 | 14.0 | 0.00 | 0.00 | 0.00 | 21 | 1009.9 |
| 20260507202703 | 59 | 31 | 1.0 | 8.0 | 0.00 | 0.00 | 0.00 | 21 | 1010.0 |
| 20260507202202 | 59 | 60 | 1.0 | 8.0 | 0.00 | 0.00 | 0.00 | 20 | 1009.9 |
| 20260507201703 | 59 | 1 | 1.0 | 10.0 | 0.00 | 0.00 | 0.00 | 22 | 1010.0 |
| 20260507200704 | 59 | 40 | 2.0 | 10.0 | 0.00 | 0.00 | 0.00 | 19 | 1010.1 |
| 20260507200202 | 59 | 3 | 0.0 | 13.0 | 0.00 | 0.00 | 0.00 | 24 | 1010.1 |
| 20260507195203 | 58 | 315 | 2.0 | 7.0 | 0.00 | 0.00 | 0.00 | 24 | 1010.2 |
| 20260507194703 | 58 | 298 | 2.0 | 7.0 | 0.00 | 0.00 | 0.00 | 22 | 1010.2 |
| 20260507194203 | 57 | 260 | 2.0 | 12.0 | 0.00 | 0.00 | 0.00 | 24 | 1010.3 |
| 20260507193702 | 57 | 45 | 2.0 | 12.0 | 0.00 | 0.00 | 0.00 | 21 | 1010.3 |
| 20260507193203 | 57 | 299 | 3.0 | 9.0 | 0.00 | 0.00 | 0.00 | 23 | 1010.4 |
| 20260507192702 | 57 | 340 | 1.0 | 10.0 | 0.00 | 0.00 | 0.00 | 21 | 1010.4 |
| 20260507192202 | 57 | 340 | 2.0 | 10.0 | 0.00 | 0.00 | 0.00 | 21 | 1010.4 |
| 20260507191703 | 58 | 262 | 1.0 | 8.0 | 0.00 | 0.00 | 0.00 | 25 | 1010.4 |
| 20260507191203 | 58 | 285 | 3.0 | 9.0 | 0.00 | 0.00 | 0.00 | 23 | 1010.4 |
| 20260507190703 | 58 | 286 | 2.0 | 9.0 | 0.00 | 0.00 | 0.00 | 23 | 1010.5 |
| 20260507190203 | 57 | 333 | 1.0 | 9.0 | 0.00 | 0.00 | 0.00 | 22 | 1010.5 |
| 20260507185703 | 57 | 294 | 3.0 | 9.0 | 0.00 | 0.00 | 0.00 | 24 | 1010.5 |
| 20260507185203 | 57 | 320 | 2.0 | 6.0 | 0.00 | 0.00 | 0.00 | 24 | 1010.4 |
| 20260507184702 | 57 | 274 | 3.0 | 6.0 | 0.00 | 0.00 | 0.00 | 26 | 1010.5 |
| 20260507184203 | 56 | 202 | 1.0 | 3.0 | 0.00 | 0.00 | 0.00 | 26 | 1010.5 |
| 20260507183203 | 56 | 263 | 2.0 | 7.0 | 0.00 | 0.00 | 0.00 | 27 | 1010.6 |
| 20260507182702 | 55 | 339 | 2.0 | 9.0 | 0.00 | 0.00 | 0.00 | 25 | 1010.7 |
| 20260507182203 | 54 | 333 | 3.0 | 9.0 | 0.00 | 0.00 | 0.00 | 25 | 1010.7 |
| 20260507181702 | 54 | 15 | 3.0 | 9.0 | 0.00 | 0.00 | 0.00 | 23 | 1010.6 |
| 20260507181203 | 54 | 322 | 3.0 | 8.0 | 0.00 | 0.00 | 0.00 | 24 | 1010.7 |
| 20260507180703 | 54 | 169 | 1.0 | 5.0 | 0.00 | 0.00 | 0.00 | 25 | 1010.6 |
| 20260507180203 | 54 | 250 | 2.0 | 6.0 | 0.00 | 0.00 | 0.00 | 29 | 1010.8 |
| 20260507175703 | 53 | 15 | 1.0 | 8.0 | 0.00 | 0.00 | 0.00 | 25 | 1010.8 |
| 20260507174702 | 53 | 12 | 1.0 | 9.0 | 0.00 | 0.00 | 0.00 | 26 | 1010.9 |
| 20260507174203 | 53 | 273 | 0.0 | 3.0 | 0.00 | 0.00 | 0.00 | 28 | 1010.9 |
| 20260507173703 | 52 | 61 | 0.0 | 3.0 | 0.00 | 0.00 | 0.00 | 27 | 1010.9 |
| 20260507173203 | 53 | 5 | 1.0 | 3.0 | 0.00 | 0.00 | 0.00 | 29 | 1011.1 |
| 20260507172702 | 52 | 49 | 0.0 | 5.0 | 0.00 | 0.00 | 0.00 | 28 | 1011.1 |
| 20260507172203 | 52 | 42 | 1.0 | 6.0 | 0.00 | 0.00 | 0.00 | 29 | 1011.1 |
| 20260507171703 | 52 | 50 | 2.0 | 6.0 | 0.00 | 0.00 | 0.00 | 29 | 1011.1 |
| 20260507171202 | 52 | 107 | 0.0 | 5.0 | 0.00 | 0.00 | 0.00 | 30 | 1011.1 |
| 20260507170703 | 52 | 55 | 0.0 | 6.0 | 0.00 | 0.00 | 0.00 | 29 | 1011.2 |
| 20260507170203 | 52 | 291 | 0.0 | 8.0 | 0.00 | 0.00 | 0.00 | 32 | 1011.2 |
| 20260507164703 | 51 | 278 | 1.0 | 12.0 | 0.00 | 0.00 | 0.00 | 29 | 1011.5 |
| 20260507164203 | 51 | 3 | 2.0 | 12.0 | 0.00 | 0.00 | 0.00 | 31 | 1011.5 |
| 20260507163203 | 51 | 5 | 0.0 | 3.0 | 0.00 | 0.00 | 0.00 | 33 | 1011.5 |
| 20260507162203 | 50 | 63 | 0.0 | 6.0 | 0.00 | 0.00 | 0.00 | 33 | 1011.5 |
| 20260507161702 | 50 | 196 | 1.0 | 10.0 | 0.00 | 0.00 | 0.00 | 32 | 1011.6 |
| 20260507161203 | 50 | 15 | 1.0 | 10.0 | 0.00 | 0.00 | 0.00 | 31 | 1011.7 |
| 20260507160703 | 49 | 28 | 3.0 | 10.0 | 0.00 | 0.00 | 0.00 | 32 | 1011.7 |
| 20260507160203 | 49 | 261 | 1.0 | 6.0 | 0.00 | 0.00 | 0.00 | 34 | 1011.6 |
| 20260507155703 | 49 | 356 | 1.0 | 7.0 | 0.00 | 0.00 | 0.00 | 31 | 1011.7 |
| 20260507155203 | 49 | 2 | 1.0 | 8.0 | 0.00 | 0.00 | 0.00 | 33 | 1011.7 |
| 20260507154703 | 49 | 342 | 0.0 | 8.0 | 0.00 | 0.00 | 0.00 | 34 | 1011.6 |
| 20260507154203 | 49 | 25 | 1.0 | 10.0 | 0.00 | 0.00 | 0.00 | 34 | 1011.6 |
| 20260507153703 | 48 | 357 | 0.0 | 10.0 | 0.00 | 0.00 | 0.00 | 33 | 1011.7 |
| 20260507153203 | 48 | 350 | 2.0 | 10.0 | 0.00 | 0.00 | 0.00 | 33 | 1011.6 |
| 20260507152704 | 48 | 21 | 0.0 | 6.0 | 0.00 | 0.00 | 0.00 | 34 | 1011.6 |
| 20260507152203 | 48 | 46 | 0.0 | 6.0 | 0.00 | 0.00 | 0.00 | 36 | 1011.6 |
| 20260507151703 | 47 | 57 | 1.0 | 6.0 | 0.00 | 0.00 | 0.00 | 35 | 1011.6 |
| 20260507151203 | 47 | 352 | 1.0 | 5.0 | 0.00 | 0.00 | 0.00 | 35 | 1011.8 |
| 20260507150703 | 47 | 313 | 0.0 | 3.0 | 0.00 | 0.00 | 0.00 | 36 | 1011.7 |
| 20260507145703 | 47 | 31 | 0.0 | 3.0 | 0.00 | 0.00 | 0.00 | 37 | 1011.7 |
| 20260507144702 | 47 | 246 | 1.0 | 3.0 | 0.00 | 0.00 | 0.00 | 41 | 1011.8 |
| 20260507144203 | 46 | 334 | 0.0 | 3.0 | 0.00 | 0.00 | 0.00 | 41 | 1011.9 |
| 20260507143704 | 46 | 334 | 0.0 | 3.0 | 0.00 | 0.00 | 0.00 | 41 | 1011.8 |
| 20260507143203 | 46 | 25 | 0.0 | 1.0 | 0.00 | 0.00 | 0.00 | 44 | 1011.8 |
| 20260507142703 | 45 | 29 | 0.0 | 3.0 | 0.00 | 0.00 | 0.00 | 44 | 1011.8 |
| 20260507142203 | 45 | 25 | 1.0 | 3.0 | 0.00 | 0.00 | 0.00 | 45 | 1011.9 |
| 20260507141702 | 45 | 283 | 0.0 | 1.0 | 0.00 | 0.00 | 0.00 | 46 | 1011.9 |
| 20260507141203 | 45 | 268 | 0.0 | 1.0 | 0.00 | 0.00 | 0.00 | 44 | 1011.9 |
| 20260507140703 | 44 | 304 | 0.0 | 5.0 | 0.00 | 0.00 | 0.00 | 48 | 1011.8 |
| 20260507140203 | 44 | 0 | 0.0 | 5.0 | 0.00 | 0.00 | 0.00 | 46 | 1011.9 |
| 20260507135703 | 44 | 0 | 0.0 | 2.0 | 0.00 | 0.00 | 0.00 | 45 | 1011.9 |
| 20260507135203 | 44 | 1 | 0.0 | 2.0 | 0.00 | 0.00 | 0.00 | 47 | 1011.9 |
| 20260507134704 | 44 | 57 | 0.0 | 3.0 | 0.00 | 0.00 | 0.00 | 51 | 1012.0 |
| 20260507134203 | 43 | 57 | 0.0 | 3.0 | 0.00 | 0.00 | 0.00 | 51 | 1012.0 |
| 20260507133203 | 43 | 8 | 0.0 | 1.0 | 0.00 | 0.00 | 0.00 | 55 | 1011.9 |
| 20260507132703 | 42 | 8 | 0.0 | 0.0 | 0.00 | 0.00 | 0.00 | 55 | 1012.0 |
| 20260507131703 | 41 | 37 | 1.0 | 5.0 | 0.00 | 0.00 | 0.00 | 58 | 1012.0 |
| 20260507131203 | 41 | 355 | 0.0 | 0.0 | 0.00 | 0.00 | 0.00 | 60 | 1012.1 |
| 20260507130703 | 40 | 0 | 0.0 | 1.0 | 0.00 | 0.00 | 0.00 | 60 | 1012.1 |
| 20260507130203 | 40 | 0 | 0.0 | 1.0 | 0.00 | 0.00 | 0.00 | 62 | 1012.1 |
| 20260507125703 | 39 | 348 | 0.0 | 0.0 | 0.00 | 0.00 | 0.00 | 63 | 1012.1 |
| 20260507125203 | 39 | 348 | 0.0 | 0.0 | 0.00 | 0.00 | 0.00 | 63 | 1012.1 |
| 20260507124703 | 39 | 348 | 0.0 | 0.0 | 0.00 | 0.00 | 0.00 | 63 | 1012.2 |
| 20260507124203 | 39 | 348 | 0.0 | 0.0 | 0.00 | 0.00 | 0.00 | 63 | 1012.2 |
| 20260507123703 | 38 | 348 | 0.0 | 0.0 | 0.00 | 0.00 | 0.00 | 63 | 1012.3 |
| 20260507123203 | 38 | 348 | 0.0 | 0.0 | 0.00 | 0.00 | 0.00 | 63 | 1012.3 |
| 20260507122705 | 38 | 348 | 0.0 | 0.0 | 0.00 | 0.00 | 0.00 | 63 | 1012.3 |
| 20260507122203 | 38 | 348 | 0.0 | 0.0 | 0.00 | 0.00 | 0.00 | 64 | 1012.3 |
| 20260507121703 | 37 | 348 | 0.0 | 0.0 | 0.00 | 0.00 | 0.00 | 64 | 1012.3 |
| 20260507121203 | 37 | 348 | 0.0 | 0.0 | 0.00 | 0.00 | 0.00 | 65 | 1012.3 |
| 20260507120703 | 37 | 348 | 0.0 | 0.0 | 0.00 | 0.00 | 0.00 | 65 | 1012.2 |
| 20260507120204 | 37 | 348 | 0.0 | 0.0 | 0.00 | 0.00 | 0.00 | 66 | 1012.2 |
| 20260507115703 | 37 | 348 | 0.0 | 0.0 | 0.00 | 0.00 | 0.00 | 66 | 1012.2 |
| 20260507114704 | 37 | 348 | 0.0 | 0.0 | 0.00 | 0.00 | 0.00 | 65 | 1012.1 |
| 20260507113704 | 36 | 348 | 0.0 | 0.0 | 0.00 | 0.00 | 0.00 | 66 | 1012.2 |
| 20260507113203 | 36 | 348 | 0.0 | 0.0 | 0.00 | 0.00 | 0.00 | 66 | 1012.2 |
| 20260507112703 | 36 | 348 | 0.0 | 0.0 | 0.00 | 0.00 | 0.00 | 66 | 1012.2 |
| 20260507112203 | 36 | 348 | 0.0 | 0.0 | 0.00 | 0.00 | 0.00 | 66 | 1012.1 |
| 20260507111704 | 36 | 348 | 0.0 | 0.0 | 0.00 | 0.00 | 0.00 | 65 | 1012.2 |
| 20260507111203 | 36 | 348 | 0.0 | 0.0 | 0.00 | 0.00 | 0.00 | 66 | 1012.2 |
| 20260507110703 | 36 | 348 | 0.0 | 0.0 | 0.00 | 0.00 | 0.00 | 66 | 1012.1 |
| 20260507110203 | 36 | 348 | 0.0 | 0.0 | 0.00 | 0.00 | 0.00 | 66 | 1012.2 |
| 20260507105703 | 36 | 348 | 0.0 | 0.0 | 0.00 | 0.00 | 0.00 | 66 | 1012.2 |
| 20260507105203 | 36 | 348 | 0.0 | 0.0 | 0.00 | 0.00 | 0.00 | 66 | 1012.2 |
| 20260507104703 | 36 | 348 | 0.0 | 0.0 | 0.00 | 0.00 | 0.00 | 65 | 1012.2 |
| 20260507103203 | 36 | 348 | 0.0 | 0.0 | 0.00 | 0.00 | 0.00 | 66 | 1012.2 |
| 20260507102703 | 36 | 348 | 0.0 | 0.0 | 0.00 | 0.00 | 0.00 | 66 | 1012.2 |
| 20260507102203 | 36 | 348 | 0.0 | 0.0 | 0.00 | 0.00 | 0.00 | 66 | 1012.2 |
| 20260507101703 | 36 | 348 | 0.0 | 0.0 | 0.00 | 0.00 | 0.00 | 66 | 1012.2 |
| 20260507101203 | 36 | 348 | 0.0 | 0.0 | 0.00 | 0.00 | 0.00 | 66 | 1012.3 |
| 20260507100704 | 36 | 348 | 0.0 | 0.0 | 0.00 | 0.00 | 0.00 | 66 | 1012.2 |
| 20260507100203 | 36 | 348 | 0.0 | 0.0 | 0.00 | 0.00 | 0.00 | 65 | 1012.2 |
| 20260507095704 | 36 | 348 | 0.0 | 0.0 | 0.00 | 0.00 | 0.00 | 64 | 1012.3 |
| 20260507095203 | 36 | 348 | 0.0 | 0.0 | 0.00 | 0.00 | 0.00 | 64 | 1012.3 |
| 20260507094204 | 36 | 348 | 0.0 | 0.0 | 0.00 | 0.00 | 0.00 | 63 | 1012.4 |
| 20260507093703 | 36 | 348 | 0.0 | 0.0 | 0.00 | 0.00 | 0.00 | 63 | 1012.3 |
| 20260507093204 | 36 | 348 | 0.0 | 0.0 | 0.00 | 0.00 | 0.00 | 63 | 1012.4 |
| 20260507092704 | 36 | 348 | 0.0 | 0.0 | 0.00 | 0.00 | 0.00 | 63 | 1012.3 |
| 20260507092204 | 36 | 348 | 0.0 | 0.0 | 0.00 | 0.00 | 0.00 | 63 | 1012.4 |
| 20260507091703 | 36 | 348 | 0.0 | 0.0 | 0.00 | 0.00 | 0.00 | 62 | 1012.4 |
| 20260507091203 | 36 | 348 | 0.0 | 0.0 | 0.00 | 0.00 | 0.00 | 62 | 1012.4 |
| 20260507090704 | 36 | 348 | 0.0 | 0.0 | 0.00 | 0.00 | 0.00 | 62 | 1012.4 |
| 20260507090203 | 37 | 348 | 0.0 | 1.0 | 0.00 | 0.00 | 0.00 | 62 | 1012.3 |
| 20260507085704 | 37 | 348 | 0.0 | 3.0 | 0.00 | 0.00 | 0.00 | 62 | 1012.3 |
| 20260507085204 | 37 | 348 | 1.0 | 3.0 | 0.00 | 0.00 | 0.00 | 62 | 1012.4 |
| 20260507084703 | 37 | 348 | 0.0 | 0.0 | 0.00 | 0.00 | 0.00 | 62 | 1012.3 |
| 20260507084204 | 37 | 349 | 0.0 | 0.0 | 0.00 | 0.00 | 0.00 | 62 | 1012.3 |
| 20260507083703 | 37 | 349 | 0.0 | 2.0 | 0.00 | 0.00 | 0.00 | 62 | 1012.3 |
| 20260507083204 | 37 | 349 | 0.0 | 2.0 | 0.00 | 0.00 | 0.00 | 61 | 1012.2 |
| 20260507082703 | 37 | 349 | 0.0 | 0.0 | 0.00 | 0.00 | 0.00 | 61 | 1012.3 |
| 20260507082204 | 37 | 349 | 0.0 | 0.0 | 0.00 | 0.00 | 0.00 | 61 | 1012.3 |
| 20260507081703 | 37 | 349 | 0.0 | 0.0 | 0.00 | 0.00 | 0.00 | 61 | 1012.2 |
| 20260507081203 | 37 | 349 | 0.0 | 0.0 | 0.00 | 0.00 | 0.00 | 61 | 1012.3 |
| 20260507080703 | 37 | 349 | 0.0 | 0.0 | 0.00 | 0.00 | 0.00 | 61 | 1012.4 |
| 20260507080203 | 37 | 349 | 0.0 | 0.0 | 0.00 | 0.00 | 0.00 | 60 | 1012.4 |
| 20260507075703 | 37 | 349 | 0.0 | 0.0 | 0.00 | 0.00 | 0.00 | 61 | 1012.4 |
| 20260507075204 | 37 | 349 | 0.0 | 0.0 | 0.00 | 0.00 | 0.00 | 62 | 1012.4 |
| 20260507074703 | 37 | 349 | 0.0 | 0.0 | 0.00 | 0.00 | 0.00 | 62 | 1012.4 |
| 20260507074203 | 37 | 349 | 0.0 | 2.0 | 0.00 | 0.00 | 0.00 | 62 | 1012.4 |
| 20260507073704 | 37 | 0 | 0.0 | 2.0 | 0.00 | 0.00 | 0.00 | 62 | 1012.4 |
| 20260507072704 | 38 | 0 | 0.0 | 0.0 | 0.00 | 0.00 | 0.00 | 62 | 1012.5 |
| 20260507072203 | 38 | 0 | 0.0 | 0.0 | 0.00 | 0.00 | 0.00 | 62 | 1012.4 |
| 20260507071704 | 38 | 0 | 0.0 | 0.0 | 0.00 | 0.00 | 0.00 | 61 | 1012.5 |
| 20260507071203 | 38 | 16 | 0.0 | 0.0 | 0.00 | 0.00 | 0.00 | 61 | 1012.6 |
| 20260507070205 | 38 | 16 | 0.0 | 0.0 | 0.00 | 0.00 | 0.00 | 60 | 1012.6 |
| 20260507065704 | 38 | 16 | 0.0 | 0.0 | 0.00 | 0.00 | 0.00 | 60 | 1012.7 |
| 20260507065203 | 38 | 16 | 0.0 | 0.0 | 0.00 | 0.00 | 0.00 | 60 | 1012.8 |
| 20260507064703 | 38 | 16 | 0.0 | 0.0 | 0.00 | 0.00 | 0.00 | 59 | 1012.8 |
| 20260507063704 | 38 | 16 | 0.0 | 0.0 | 0.00 | 0.00 | 0.00 | 58 | 1012.9 |
| 20260507063204 | 38 | 16 | 0.0 | 0.0 | 0.00 | 0.00 | 0.00 | 58 | 1012.9 |
| 20260507062703 | 38 | 16 | 0.0 | 0.0 | 0.00 | 0.00 | 0.00 | 57 | 1012.9 |
| 20260507062204 | 38 | 16 | 0.0 | 0.0 | 0.00 | 0.00 | 0.00 | 58 | 1013.0 |
| 20260507061703 | 39 | 16 | 0.0 | 0.0 | 0.00 | 0.00 | 0.00 | 57 | 1013.0 |
| 20260507060704 | 39 | 16 | 0.0 | 0.0 | 0.00 | 0.00 | 0.00 | 57 | 1013.1 |
| 20260507060203 | 39 | 16 | 0.0 | 0.0 | 0.00 | 0.00 | 0.00 | 57 | 1013.1 |
| 20260507055703 | 39 | 16 | 0.0 | 0.0 | 0.00 | 0.00 | 0.00 | 56 | 1013.2 |
| 20260507055204 | 39 | 16 | 0.0 | 0.0 | 0.00 | 0.00 | 0.00 | 56 | 1013.2 |
| 20260507054704 | 39 | 16 | 0.0 | 0.0 | 0.00 | 0.00 | 0.00 | 56 | 1013.1 |
| 20260507054204 | 40 | 16 | 0.0 | 0.0 | 0.00 | 0.00 | 0.00 | 56 | 1013.2 |
| 20260507053703 | 40 | 16 | 0.0 | 0.0 | 0.00 | 0.00 | 0.00 | 55 | 1013.2 |
| 20260507053204 | 40 | 16 | 0.0 | 0.0 | 0.00 | 0.00 | 0.00 | 54 | 1013.2 |
| 20260507052704 | 40 | 16 | 0.0 | 0.0 | 0.00 | 0.00 | 0.00 | 54 | 1013.3 |
| 20260507052203 | 41 | 16 | 0.0 | 0.0 | 0.00 | 0.00 | 0.00 | 53 | 1013.3 |
| 20260507051704 | 41 | 16 | 0.0 | 0.0 | 0.00 | 0.00 | 0.00 | 53 | 1013.4 |
| 20260507050704 | 41 | 16 | 0.0 | 0.0 | 0.00 | 0.00 | 0.00 | 52 | 1013.3 |
| 20260507050203 | 41 | 16 | 0.0 | 0.0 | 0.00 | 0.00 | 0.00 | 53 | 1013.4 |
| 20260507045204 | 41 | 16 | 0.0 | 0.0 | 0.00 | 0.00 | 0.00 | 52 | 1013.4 |
| 20260507043703 | 41 | 16 | 0.0 | 0.0 | 0.00 | 0.00 | 0.00 | 52 | 1013.5 |
| 20260507043204 | 41 | 16 | 0.0 | 0.0 | 0.00 | 0.00 | 0.00 | 54 | 1013.5 |
| 20260507042704 | 41 | 16 | 0.0 | 0.0 | 0.00 | 0.00 | 0.00 | 54 | 1013.6 |
| 20260507042203 | 41 | 16 | 0.0 | 0.0 | 0.00 | 0.00 | 0.00 | 53 | 1013.6 |
| 20260507041704 | 41 | 16 | 0.0 | 0.0 | 0.00 | 0.00 | 0.00 | 53 | 1013.7 |
| 20260507040703 | 41 | 16 | 0.0 | 0.0 | 0.00 | 0.00 | 0.00 | 53 | 1013.7 |
| 20260507040204 | 41 | 16 | 0.0 | 0.0 | 0.00 | 0.00 | 0.00 | 52 | 1013.7 |
| 20260507035703 | 41 | 16 | 0.0 | 0.0 | 0.00 | 0.00 | 0.00 | 52 | 1013.7 |
| 20260507035204 | 41 | 16 | 0.0 | 0.0 | 0.00 | 0.00 | 0.00 | 52 | 1013.7 |
| 20260507034703 | 41 | 16 | 0.0 | 0.0 | 0.00 | 0.00 | 0.00 | 53 | 1013.8 |
| 20260507034204 | 41 | 16 | 0.0 | 0.0 | 0.00 | 0.00 | 0.00 | 53 | 1013.9 |
| 20260507033704 | 41 | 16 | 0.0 | 0.0 | 0.00 | 0.00 | 0.00 | 53 | 1013.9 |
| 20260507033204 | 41 | 16 | 0.0 | 0.0 | 0.00 | 0.00 | 0.00 | 51 | 1013.8 |
| 20260507032703 | 41 | 16 | 0.0 | 0.0 | 0.00 | 0.00 | 0.00 | 51 | 1013.8 |
| 20260507032204 | 41 | 16 | 0.0 | 0.0 | 0.00 | 0.00 | 0.00 | 51 | 1013.9 |
| 20260507031704 | 41 | 16 | 0.0 | 0.0 | 0.00 | 0.00 | 0.00 | 51 | 1013.9 |
| 20260507031204 | 41 | 16 | 0.0 | 0.0 | 0.00 | 0.00 | 0.00 | 50 | 1014.0 |
| 20260507030703 | 41 | 16 | 0.0 | 0.0 | 0.00 | 0.00 | 0.00 | 50 | 1014.0 |
| 20260507030204 | 41 | 16 | 0.0 | 0.0 | 0.00 | 0.00 | 0.00 | 50 | 1014.0 |
| 20260507025704 | 41 | 16 | 0.0 | 0.0 | 0.00 | 0.00 | 0.00 | 50 | 1014.0 |
| 20260507025204 | 41 | 16 | 0.0 | 0.0 | 0.00 | 0.00 | 0.00 | 50 | 1013.9 |
| 20260507024704 | 41 | 16 | 0.0 | 0.0 | 0.00 | 0.00 | 0.00 | 49 | 1014.0 |
| 20260507024205 | 41 | 16 | 0.0 | 0.0 | 0.00 | 0.00 | 0.00 | 49 | 1014.0 |
| 20260507023704 | 41 | 16 | 0.0 | 0.0 | 0.00 | 0.00 | 0.00 | 48 | 1014.1 |
| 20260507023204 | 41 | 16 | 0.0 | 0.0 | 0.00 | 0.00 | 0.00 | 48 | 1014.0 |
| 20260507022704 | 41 | 16 | 0.0 | 0.0 | 0.00 | 0.00 | 0.00 | 47 | 1014.1 |
| 20260507022205 | 41 | 16 | 0.0 | 0.0 | 0.00 | 0.00 | 0.00 | 47 | 1014.2 |
| 20260507021704 | 41 | 16 | 0.0 | 0.0 | 0.00 | 0.00 | 0.00 | 47 | 1014.2 |
| 20260507020704 | 42 | 16 | 0.0 | 0.0 | 0.00 | 0.00 | 0.00 | 46 | 1014.2 |
| 20260507020204 | 42 | 16 | 0.0 | 0.0 | 0.00 | 0.00 | 0.00 | 45 | 1014.2 |
| 20260507015704 | 42 | 16 | 0.0 | 0.0 | 0.00 | 0.00 | 0.00 | 45 | 1014.1 |
| 20260507014705 | 42 | 16 | 0.0 | 1.0 | 0.00 | 0.00 | 0.00 | 44 | 1014.1 |
| 20260507013704 | 43 | 16 | 0.0 | 5.0 | 0.00 | 0.00 | 0.00 | 43 | 1014.1 |
| 20260507013204 | 43 | 5 | 0.0 | 3.0 | 0.00 | 0.00 | 0.00 | 43 | 1014.0 |
| 20260507012704 | 43 | 3 | 0.0 | 1.0 | 0.00 | 0.00 | 0.00 | 43 | 1014.1 |
| 20260507012204 | 44 | 3 | 0.0 | 3.0 | 0.00 | 0.00 | 0.00 | 42 | 1014.1 |
| 20260507011704 | 44 | 6 | 0.0 | 5.0 | 0.00 | 0.00 | 0.00 | 41 | 1014.1 |
| 20260507011204 | 44 | 8 | 1.0 | 6.0 | 0.00 | 0.00 | 0.00 | 41 | 1014.1 |
| 20260507010704 | 44 | 2 | 0.0 | 7.0 | 0.00 | 0.00 | 0.00 | 41 | 1014.1 |
| 20260507010204 | 44 | 48 | 1.0 | 7.0 | 0.00 | 0.00 | 0.00 | 40 | 1014.1 |
| 20260507005704 | 45 | 17 | 0.0 | 9.0 | 0.00 | 0.00 | 0.00 | 41 | 1014.1 |
| 20260507004204 | 45 | 336 | 1.0 | 5.0 | 0.00 | 0.00 | 0.00 | 41 | 1014.2 |
| 20260507003704 | 46 | 25 | 1.0 | 6.0 | 0.00 | 0.00 | 0.00 | 40 | 1014.0 |
| 20260507003204 | 46 | 0 | 1.0 | 6.0 | 0.00 | 0.00 | 0.00 | 40 | 1014.0 |
| 20260507002705 | 46 | 340 | 1.0 | 8.0 | 0.00 | 0.00 | 0.00 | 39 | 1014.1 |
| 20260507002204 | 46 | 342 | 2.0 | 8.0 | 0.00 | 0.00 | 0.00 | 39 | 1014.2 |
| 20260507001705 | 46 | 342 | 3.0 | 8.0 | 0.00 | 0.00 | 0.00 | 42 | 1014.2 |
| 20260507001205 | 46 | 278 | 2.0 | 8.0 | 0.00 | 0.00 | 0.00 | 40 | 1014.2 |
| 20260507000704 | 46 | 345 | 3.0 | 8.0 | 0.00 | 0.00 | 0.00 | 40 | 1014.3 |
| 20260507000212 | 46 | 20 | 2.0 | 9.0 | 0.00 | 0.00 | 0.00 | 42 | 1014.1 |
| 20260506235704 | 46 | 349 | 0.0 | 9.0 | 0.00 | 0.00 | 0.00 | 40 | 1014.2 |
| 20260506235204 | 46 | 2 | 3.0 | 9.0 | 0.00 | 0.00 | 0.00 | 39 | 1014.3 |
| 20260506234704 | 46 | 256 | 1.0 | 9.0 | 0.00 | 0.00 | 0.00 | 40 | 1014.3 |
| 20260506233704 | 46 | 31 | 1.0 | 7.0 | 0.00 | 0.00 | 0.00 | 40 | 1014.3 |
| 20260506232704 | 46 | 348 | 1.0 | 12.0 | 0.00 | 0.00 | 0.00 | 40 | 1014.4 |
| 20260506232204 | 46 | 9 | 2.0 | 12.0 | 0.00 | 0.00 | 0.00 | 39 | 1014.4 |